Skip Page Navigation
NASA JPL Caltech
NASA Logo - Jet Propulsion Laboratory + View the NASA Portal
+ Center for Near-Earth Object Studies
JPL Home Earth Solar System Stars & Galaxies Technology
JPL Solar System Dynamics
BODIES ORBITS EPHEMERIDES TOOLS PHYSICAL DATA DISCOVERY FAQ SITE MAP
JPL Small-Body Database Browser
Search: [ help ]  
(2014 EH24)
Classification: Apollo [NEO]          SPK-ID: 3663821
Ephemeris | Orbit Diagram | Orbital Elements | Mission Design | Physical Parameters | Close-Approach Data ]

[ show orbit diagram ]
Orbital Elements at Epoch 2459200.5 (2020-Dec-17.0) TDB
Reference: JPL 13 (heliocentric ecliptic J2000)
 Element Value Uncertainty (1-sigma)   Units 
e .2840697399824871 0.00025046  
a 1.101953798479547 0.00022365 au
q .7889220694727478 0.00011601 au
i 14.72421083729727 0.015152 deg
node 351.7533491283294 0.00044898 deg
peri 66.38996668602869 0.010171 deg
M 26.81944805883137 0.69347 deg
tp 2459169.023180664545
(2020-Nov-15.52318066)
0.80431 TDB
period 422.5163372455191
1.16
0.12863
0.0003522
d
yr
n .852038059278187 0.00025939 deg/d
Q 1.414985527486346 0.00028718 au
  Orbit Determination Parameters
   # obs. used (total)      60  
   data-arc span      20 days  
   first obs. used      2014-03-10  
   last obs. used      2014-03-30  
   planetary ephem.      DE441  
   SB-pert. ephem.      SB441-N16  
   condition code      7  
   norm. resid. RMS      .47096  
   source      ORB  
   producer      Otto Matic  
   solution date      2021-Apr-15 09:30:31  

Additional Information
 Earth MOID = .0733712 au 
 Jupiter MOID = 3.95061 au 
 T_jup = 5.575 
[ show covariance matrix ]

Ephemeris | Orbit Diagram | Orbital Elements | Mission Design | Physical Parameters | Close-Approach Data ]

Physical Parameter Table
Parameter Symbol Value Units Sigma Reference Notes
absolute magnitude H 22.9   n/a MPO292237  

[ show close-approach data ]
Ephemeris | Orbit Diagram | Orbital Elements | Mission Design | Physical Parameters | Close-Approach Data ]
ABOUT SSD CREDITS/AWARDS PRIVACY/COPYRIGHT GLOSSARY LINKS
FirstGov 2021-Apr-22 12:38 UT
(server date/time)  
NASA Home Page
Site Manager:   Ryan S. Park
Webmaster  Alan B. Chamberlin